Concord, NH

12:05 PM EDT on April 28, 2017 (GMT -0400)
Concord Municipal

Weather History for KCON - June, 2013

Change the Weather History Date:

Tuesday, June 25, 2013

  Actual Average Record
Temperature  
Mean Temperature 78 °F 68 °F  
Max Temperature 91 °F 80 °F 99 °F (1870)
Min Temperature 64 °F 55 °F 40 °F (1979)
Degree Days  
Heating Degree Days 0 1  
Month to date heating degree days 72 79  
Since 1 June heating degree days 72 79  
Since 1 July heating degree days 6845 7229  
Cooling Degree Days 13 4  
Month to date cooling degree days 82 62  
Year to date cooling degree days 103 80  
Since 1 June cooling degree days 82 62  
Growing Degree Days 28 (Base 50)    
Moisture  
Dew Point 67 °F    
Average Humidity 72    
Maximum Humidity 100    
Minimum Humidity 44    
Precipitation  
Precipitation 0.10 in 0.11 in 2.32 in (2014)
Month to date precipitation 5.04 3.14  
Year to date precipitation 17.80 18.80  
Snow  
Snow 0.00 in 0.00 in 0.00 in (2002)
Month to date snowfall 0.0 0.0  
Since 1 June snowfall 0.0 0.0  
Since 1 July snowfall 83.4 61.4  
Snow Depth 0.00 in    
Sea Level Pressure  
Sea Level Pressure 29.81 in    
Wind  
Wind Speed 4 mph (WSW)    
Max Wind Speed 15 mph    
Max Gust Speed 22 mph    
Visibility 7 miles    
Events Fog , Rain , Thunderstorm    
T = Trace of Precipitation, MM = Missing Value Source: NWS Daily Summary

Daily Weather History Graph

Daily Weather History Graph

Search for Another Location

Airport or City:

Trip Planner

Search our weather history database for the weather conditions in past years. The results will help you decide how hot, cold, wet, or windy it might be!

Date:

Astronomy

Jun. 25, 2013 Rise Set
Actual Time 5:07 AM EDT 8:29 PM EDT
Civil Twilight 4:31 AM EDT 9:05 PM EDT
Nautical Twilight 3:45 AM EDT 9:51 PM EDT
Astronomical Twilight 2:47 AM EDT 10:49 PM EDT
Moon 10:07 PM EDT (6/25) 7:48 AM EDT (6/25)
Length of Visible Light 16h 33m
Length of Day
15h 22m
Waning Gibbous, 93% of the Moon is Illuminated
Jun 25
Waning Gibbous
Jun 30
Last Quarter
Jul 8
New
Jul 15
First Quarter
Jul 22
Full

Hourly Weather History & Observations

Time (EDT) Temp. Heat Index Dew Point Humidity Pressure Visibility Wind Dir Wind Speed Gust Speed Precip Events Conditions
12:51 AM 71.1 °F - 66.9 °F 87% 29.91 in 10.0 mi Calm Calm - N/A   Clear
1:51 AM 69.1 °F - 66.0 °F 90% 29.90 in 8.0 mi WSW 4.6 mph - N/A   Clear
2:51 AM 66.9 °F - 66.0 °F 97% 29.88 in 9.0 mi Calm Calm - N/A   Clear
3:51 AM 66.0 °F - 64.9 °F 96% 29.89 in 9.0 mi ESE 3.5 mph - N/A   Clear
4:51 AM 69.1 °F - 64.0 °F 84% 29.89 in 10.0 mi West 4.6 mph - N/A   Clear
5:51 AM 64.9 °F - 64.0 °F 97% 29.89 in 7.0 mi Calm Calm - N/A   Partly Cloudy
6:51 AM 70.0 °F - 66.0 °F 87% 29.88 in 9.0 mi Calm Calm - N/A   Clear
7:51 AM 75.0 °F - 64.9 °F 71% 29.88 in 10.0 mi Calm Calm - N/A   Clear
8:51 AM 78.1 °F - 66.0 °F 66% 29.87 in 10.0 mi WSW 6.9 mph - N/A   Clear
9:51 AM 80.1 °F 82.1 °F 66.0 °F 62% 29.86 in 10.0 mi South 4.6 mph - N/A   Clear
10:51 AM 84.0 °F 87.0 °F 68.0 °F 58% 29.87 in 10.0 mi Calm Calm - N/A   Clear
11:51 AM 86.0 °F 89.4 °F 68.0 °F 55% 29.85 in 10.0 mi WSW 9.2 mph - N/A   Partly Cloudy
12:51 PM 90.0 °F 92.8 °F 66.9 °F 46% 29.83 in 10.0 mi WNW 10.4 mph - N/A   Mostly Cloudy
1:51 PM 90.0 °F 92.8 °F 66.9 °F 46% 29.81 in 10.0 mi West 10.4 mph 16.1 mph N/A   Clear
2:51 PM 87.1 °F 89.9 °F 66.9 °F 51% 29.78 in 10.0 mi SW 11.5 mph - N/A   Partly Cloudy
3:51 PM 91.0 °F 93.8 °F 66.0 °F 44% 29.74 in 10.0 mi SW 9.2 mph - N/A   Scattered Clouds
4:51 PM 89.1 °F 91.0 °F 64.9 °F 45% 29.74 in 10.0 mi WSW 11.5 mph 18.4 mph N/A   Mostly Cloudy
5:51 PM 86.0 °F 88.2 °F 66.0 °F 51% 29.73 in 10.0 mi SW 5.8 mph - N/A   Partly Cloudy
6:51 PM 79.0 °F - 66.9 °F 66% 29.74 in 10.0 mi NNW 8.1 mph - 0.00 in   Mostly Cloudy
7:03 PM 75.2 °F - 69.8 °F 83% 29.77 in 4.0 mi NW 12.7 mph - 0.01 in Rain , Thunderstorm Rain
7:42 PM 71.6 °F - 68.0 °F 88% 29.76 in 10.0 mi North 3.5 mph - 0.03 in Rain Light Rain
7:51 PM 71.1 °F - 68.0 °F 90% 29.76 in 10.0 mi Calm Calm - 0.03 in Rain , Thunderstorm Light Rain
8:11 PM 69.8 °F - 69.8 °F 100% 29.77 in 2.5 mi SSE 11.5 mph - 0.03 in Rain , Thunderstorm Light Rain
8:14 PM 69.8 °F - 69.8 °F 100% 29.77 in 4.0 mi SSE 9.2 mph - 0.03 in Rain Light Rain
8:43 PM 69.8 °F - 69.8 °F 100% 29.77 in 6.0 mi West 3.5 mph - 0.05 in Rain , Thunderstorm Light Rain
8:51 PM 70.0 °F - 70.0 °F 100% 29.76 in 4.0 mi Calm Calm - 0.06 in Rain , Thunderstorm Rain
8:58 PM 69.8 °F - 69.8 °F 100% 29.76 in 6.0 mi Calm Calm - 0.00 in Rain Light Rain
9:51 PM 69.1 °F - 69.1 °F 100% 29.75 in 6.0 mi Calm Calm - 0.01 in   Clear
10:51 PM 70.0 °F - 69.1 °F 97% 29.76 in 6.0 mi Calm Calm - N/A   Clear
11:20 PM 68.0 °F - 68.0 °F 100% 29.76 in 2.5 mi Calm Calm - N/A   Partly Cloudy
11:23 PM 68.0 °F - 68.0 °F 100% 29.75 in 1.2 mi Calm Calm - N/A   Partly Cloudy
11:31 PM 68.0 °F - 68.0 °F 100% 29.75 in 2.0 mi Calm Calm - N/A   Clear
11:38 PM 69.8 °F - 68.0 °F 94% 29.75 in 0.8 mi Calm Calm - N/A   Clear
11:41 PM 68.0 °F - 68.0 °F 100% 29.75 in 0.5 mi Calm Calm - N/A Fog Fog
11:48 PM 68.0 °F - 68.0 °F 100% 29.75 in 0.2 mi Calm Calm - N/A Fog Fog
11:51 PM 68.0 °F - 68.0 °F 100% 29.75 in 0.5 mi Calm Calm - N/A Fog Fog